星链-4319 (STARLINK-4319 )

导读

STARLINK-4319是美国太空探索技术公司 SpaceX 星链星座的卫星,于2022年7月11日发射升空,属于星链互联网卫星网络的组成部分,旨在为全球提供低延迟、高速率的卫星互联网服务,目前在轨运行,服务覆盖全球多地,支撑偏远地区联网、移动连接等多元应用场景。

Basic Information
目录编号:
53084
目录名称:
STARLINK-4319
国际标识:
2022-077AT
轨道中心:
EARTH
卫星名称:
星链-4319
卫星全名:
星链-4319 (STARLINK-4319 )
卫星状态:
在轨 (已飞行1524 天)
发射日期:
2022-07-11 UTC
国别 :
美国 (US)
星等 :
--
This satellite is enrolled in the Space Conjunction Data Service (SCDS) and the current flight risk assessment level is: High Risk
Orbit Information
数据来源 国际轨道数据
星历时间: 2026-09-12T12:00:02+0800
6小时前
查看轨道信息
半长轴: 6843.629km
偏心率: 0.000177
轨道倾角: 97.285°
近地点辐角 85.067°
升交点赤经 71.016°
平近点角 106.942°
近地点: 464.28km
远地点: 466.704km
周期: 93.905分钟
每日圈数: 15.334623
Detailed Information
固有亮度:
5
最大亮度:
2.5
卫星平台:
Starlink v1.5
覆盖范围:
全球
运营商:
太空探索技术公司
运营商所在国:
美国
制造商(研发单位):
太空探索技术公司
制造商所在国:
美国
使用方式:
暂无
Satellite Introduction
星链(Starlink)计划是由太空探索技术公司(SpaceX)提出的一个巨型低轨卫星互联网星座项目,计划在2019年至2024年间在太空搭建由约1.2万颗卫星组成的“星链”网络,其中1584颗将部署在地球上空550千米处的近地轨道,并从2020年开始工作。该卫星仍在工作。
2D Orbit Map
3D Orbit Map
Orbit Altitude Analysis Chart
Orbit Inclination Analysis Chart
Orbit Comprehensive Analysis Chart
View Comprehensive Chart
Conjunction Data List
Event ID Objects TCA Miss Dist (km) Collision Risk Probability Collision Risk Index (CRI) Action
CDM_260914-093405-308406-579721
2026-09-14T
09:34:43+0000
0.886 km
远距离
2.016131E-5 中风险 0.61
CDM_260914-084705-308406-579721
2026-09-14T
08:47:44+0000
1.409 km
极远距离
4.166216E-6 低风险 0.47
CDM_260913-124205-308406-411721
2026-09-13T
12:42:48+0000
1.997 km
极远距离
2.842902E-6 低风险 0.44
CDM_260913-132905-308406-411721
2026-09-13T
13:29:48+0000
2.974 km
极远距离
1.341082E-6 低风险 0.38
Miss Distance Evolution Trend with All Objects
Collision Probability Evolution Trend with All Objects